#timestamp,LO_Frequency,Hit,StdDev 
1594285215.2,286047001.7,N
1594285235.0,286046998.6,N
1594285235.9,286046998.6,N
1594285255.8,286046998.9,N
1594285275.6,286046995.1,N
1594285295.4,286046993.7,N
1594285315.3,286046992.8,N
1594285335.1,286046988.8,N
1594285336.0,286046988.8,N
1594285355.8,286046988.4,N
1594285375.7,286046985.8,N
1594285395.5,286046984.6,N
1594285415.3,286046987.2,N
1594285435.2,286046990.9,N
1594285455.0,286046989.9,N
1594285455.9,286046989.9,N
1594285475.8,286046983.9,N
1594285495.6,286046980.6,N
1594285515.4,286046981.2,N
1594285535.3,286046976.1,N
1594285555.1,286046977.2,N
1594285575.9,286046983.6,N
1594285595.7,286046986.2,N
1594285615.5,286046986.6,N
1594285635.4,286046981.8,N
1594285655.2,286046976.4,N
1594285675.0,286046974.7,N
1594285675.9,286046974.7,N
1594285695.8,286046973.0,Y
1594285715.6,286046983.8,P
1594285735.5,286046988.8,P
1594285755.3,286046988.7,P
1594285775.1,286046985.7,Y
1594285795.9,286046994.9,P
1594285815.7,286046995.6,N
1594285835.6,286046997.9,N
1594285855.4,286046995.6,N
1594285875.2,286046998.0,N
1594285895.1,286046991.8,N
1594285896.0,286046991.8,N
1594285915.8,286046991.1,N
1594285935.7,286046989.0,Y
1594285955.5,286046995.0,P
1594285975.3,286046992.3,P
1594285995.2,286046988.7,P
1594286015.9,286046988.1,Y
1594286035.7,286046998.3,P
1594286055.6,286046997.0,N
1594286075.4,286046995.5,N
1594286095.3,286046991.8,Y
1594286115.1,286046995.6,P
1594286135.8,286046994.1,P
1594286155.7,286047001.1,N
1594286175.5,286047002.3,N
1594286195.4,286047002.1,N
1594286215.2,286047005.3,N
1594286235.0,286047003.6,N
1594286235.9,286047003.6,N
1594286255.8,286046999.1,N
1594286275.6,286046995.3,N
1594286295.4,286046993.3,N
1594286315.3,286046996.0,N
1594286335.1,286046999.0,N
1594286355.9,286046996.3,N
1594286375.7,286046994.8,N
1594286395.5,286046991.3,N
1594286415.4,286046991.4,N
1594286435.2,286046994.3,N
1594286455.0,286046994.1,N
1594286455.9,286046994.1,N
1594286475.8,286046995.8,N
1594286495.6,286046993.0,N
1594286515.5,286046989.5,N
1594286535.3,286046989.9,N
1594286555.1,286046994.8,N
1594286575.9,286046993.9,N
1594286595.7,286046996.8,N
1594286615.5,286046998.6,N
1594286635.4,286047001.7,N
1594286655.2,286047004.4,N
1594286675.1,286047001.7,N
1594286676.0,286047001.7,N
1594286695.8,286047003.9,N
1594286715.6,286047005.4,N
1594286735.5,286047002.4,N
1594286755.3,286046999.0,N
1594286775.1,286046997.2,N
1594286795.9,286046996.4,N
1594286815.7,286046989.5,N
1594286835.6,286046986.4,Y
1594286855.4,286046982.5,P
1594286875.2,286046981.0,N
1594286895.1,286046982.9,N
1594286896.0,286046982.9,N
1594286915.8,286046982.5,Y
1594286935.7,286046996.5,P
1594286955.5,286047002.4,N
1594286975.3,286047005.0,N
1594286995.2,286047009.2,N
1594287015.9,286047011.6,N
1594287035.7,286047011.7,N
1594287055.6,286047011.1,N
1594287075.4,286047011.5,N
1594287095.3,286047013.0,N
1594287115.1,286047014.4,N
1594287116.0,286047014.4,N
1594287135.8,286047015.1,N
1594287155.7,286047009.2,N
1594287175.5,286047006.2,N
1594287195.3,286047013.8,N
1594287215.2,286047016.2,N
1594287235.0,286047014.8,N
1594287235.9,286047014.8,N
1594287255.8,286047008.0,N
1594287275.6,286047007.7,N
1594287295.4,286047007.4,N
1594287315.3,286047002.3,N
1594287335.1,286047001.1,N
1594287355.8,286047006.0,N
1594287375.7,286047006.6,N
1594287395.5,286047004.6,N
1594287415.3,286047003.5,N
1594287435.2,286046996.8,N
1594287455.0,286046994.3,N
1594287455.9,286046994.3,N
1594287475.8,286046992.4,N
1594287495.6,286046994.6,N
1594287515.4,286046995.9,N
1594287535.3,286046993.6,N
1594287555.1,286046997.6,N
1594287575.8,286046990.2,N
1594287595.7,286046990.7,N
1594287615.5,286046984.5,N
1594287635.4,286046980.3,N
1594287655.2,286046980.1,N
1594287675.0,286046975.7,N
1594287675.9,286046975.7,N
1594287695.8,286046979.6,N
1594287715.6,286046984.8,N
1594287735.4,286046983.2,N
1594287755.3,286046981.6,N
1594287775.1,286046980.3,N
1594287795.9,286046979.9,N
1594287815.7,286046981.9,N
1594287835.5,286046983.4,N
1594287855.4,286046981.1,N
1594287875.2,286046981.1,N
1594287895.0,286046984.1,N
1594287895.9,286046984.1,N
1594287915.8,286046982.1,N
1594287935.6,286046980.3,N
1594287955.5,286046974.9,Y
1594287975.3,286046983.8,P
1594287995.1,286046979.7,P
1594288015.9,286046979.4,P
1594288035.7,286046980.5,Y
1594288055.5,286047004.4,P
1594288075.4,286047009.8,N
1594288095.2,286047013.2,N
1594288115.1,286047016.9,N
1594288116.0,286047016.9,N
1594288135.8,286047014.7,N
1594288155.6,286047009.4,N
1594288175.5,286047010.7,N
1594288195.3,286047011.8,N
1594288215.1,286047014.7,N
1594288235.9,286047016.5,N
1594288255.7,286047020.2,N
1594288275.6,286047020.2,N
1594288295.4,286047019.4,N
1594288315.2,286047023.1,N
1594288335.1,286047015.4,N
1594288336.0,286047015.4,N
1594288355.8,286047017.1,N
1594288375.6,286047019.5,N
1594288395.5,286047022.0,N
1594288415.3,286047021.1,N
1594288435.2,286047023.1,N
1594288455.9,286047018.2,N
1594288475.7,286047014.0,N
1594288495.6,286047016.2,N
1594288515.4,286047016.1,N
1594288535.2,286047019.4,N
1594288555.1,286047020.6,N
1594288556.0,286047020.6,N
1594288575.8,286047022.5,N
1594288595.7,286047024.4,Y
1594288615.5,286047006.2,P
1594288635.3,286047006.9,N
1594288655.2,286047003.7,N
1594288675.0,286046996.7,N
1594288675.9,286046996.7,N
1594288695.8,286046997.7,N
1594288715.6,286046999.6,N
1594288735.4,286046999.5,N
1594288755.3,286046995.1,N
1594288775.1,286047001.2,N
1594288795.9,286046996.1,N
